EW4650 Weather Reports


Display with metric or nautical units.
time (UTC)temp
F
wind
direction
speed
MPH
gust
MPH
rain 1hr
in
rain 24hr
in
rain mn
in
humidity
%
barometer
mb
20260508104546 59 69 3.0 6.0 0.00 0.00 0.00 94 1012.8
20260508104045 59 54 4.0 8.0 0.00 0.00 0.00 94 1012.7
20260508103545 59 61 4.0 7.0 0.00 0.00 0.00 94 1012.7
20260508103044 59 56 4.0 5.0 0.00 0.00 0.00 93 1012.7
20260508102544 59 59 2.0 6.0 0.00 0.00 0.00 93 1012.8
20260508102044 59 76 4.0 6.0 0.00 0.00 0.00 93 1012.7
20260508101544 59 78 3.0 5.0 0.00 0.00 0.00 93 1012.7
20260508101043 59 81 2.0 5.0 0.00 0.00 0.00 93 1012.7
20260508100542 59 94 2.0 5.0 0.00 0.00 0.00 93 1012.7
20260508100043 59 81 4.0 6.0 0.00 0.00 0.00 93 1012.6
20260508095544 59 97 3.0 7.0 0.00 0.00 0.00 93 1012.7
20260508095042 59 51 6.0 8.0 0.00 0.00 0.00 93 1012.4
20260508094547 59 67 4.0 6.0 0.00 0.00 0.00 92 1012.7
20260508094040 60 55 2.0 3.0 0.00 0.00 0.00 92 1012.7
20260508093540 60 78 0.0 3.0 0.00 0.00 0.00 92 1012.8
20260508093040 60 69 2.0 3.0 0.00 0.00 0.00 92 1012.8
20260508092540 60 90 0.0 2.0 0.00 0.00 0.00 92 1012.9
20260508092039 60 105 1.0 3.0 0.00 0.00 0.00 92 1013.0
20260508091540 60 146 1.0 4.0 0.00 0.00 0.00 92 1013.1
20260508091038 60 144 2.0 4.0 0.00 0.00 0.00 91 1013.2
20260508090539 60 150 2.0 5.0 0.00 0.00 0.00 91 1013.0
20260508090038 60 163 3.0 5.0 0.00 0.00 0.00 91 1013.0
20260508085538 60 161 2.0 5.0 0.00 0.00 0.00 92 1012.9
20260508085038 60 142 2.0 5.0 0.00 0.00 0.00 92 1013.0
20260508084538 60 148 2.0 4.0 0.00 0.00 0.00 92 1012.9
20260508084038 60 130 1.0 5.0 0.00 0.00 0.00 92 1012.8
20260508083538 60 154 2.0 4.0 0.00 0.00 0.00 92 1012.9
20260508083115 60 126 1.0 4.0 0.00 0.00 0.00 92 1012.9
20260508082536 60 99 2.0 5.0 0.00 0.00 0.00 92 1012.9
20260508082036 60 123 2.0 5.0 0.00 0.00 0.00 92 1013.0
20260508081538 60 157 2.0 8.0 0.00 0.00 0.00 92 1013.2
20260508081035 60 132 4.0 9.0 0.00 0.00 0.00 92 1013.1
20260508080533 60 134 4.0 8.0 0.00 0.00 0.00 91 1013.4
20260508080046 60 146 4.0 8.0 0.00 0.00 0.00 91 1013.3
20260508075533 60 119 4.0 8.0 0.00 0.00 0.00 90 1013.2
20260508075031 60 136 4.0 7.0 0.00 0.00 0.00 90 1013.4
20260508074534 60 131 2.0 5.0 0.00 0.00 0.00 89 1013.5
20260508074029 60 107 0.0 2.0 0.00 0.00 0.00 89 1013.4
20260508073529 60 107 1.0 3.0 0.00 0.00 0.00 89 1013.4
20260508073029 60 107 1.0 4.0 0.00 0.00 0.00 88 1013.5
20260508072526 60 82 2.0 4.0 0.00 0.00 0.00 88 1013.5
20260508072024 60 86 1.0 4.0 0.00 0.00 0.00 88 1013.5
20260508071530 60 78 2.0 4.0 0.00 0.00 0.00 88 1013.4
20260508071020 60 71 2.0 4.0 0.00 0.00 0.00 88 1013.4
20260508070522 60 76 2.0 4.0 0.00 0.00 0.00 88 1013.5
20260508070018 60 91 2.0 5.0 0.00 0.00 0.00 88 1013.6
20260508065515 60 74 3.0 5.0 0.00 0.00 0.00 88 1013.7
20260508065015 60 78 1.0 3.0 0.00 0.00 0.00 88 1013.8
20260508064535 60 78 2.0 4.0 0.00 0.00 0.00 88 1013.7
20260508064012 60 68 2.0 4.0 0.00 0.00 0.00 88 1013.7
20260508063511 60 67 2.0 4.0 0.00 0.00 0.00 88 1013.8
20260508063008 60 100 2.0 3.0 0.00 0.00 0.00 88 1014.0
20260508062508 60 122 2.0 4.0 0.00 0.00 0.00 88 1014.0
20260508062007 60 169 2.0 4.0 0.00 0.00 0.00 88 1014.1
20260508061505 60 227 1.0 3.0 0.00 0.00 0.00 88 1014.1
20260508061005 60 77 0.0 2.0 0.00 0.00 0.00 88 1014.0
20260508060506 60 77 0.0 2.0 0.00 0.00 0.00 88 1013.9
20260508060005 60 77 0.0 4.0 0.00 0.00 0.00 88 1013.9
20260508055507 59 77 1.0 5.0 0.00 0.00 0.00 88 1013.8
20260508055006 59 70 3.0 5.0 0.00 0.00 0.00 88 1013.7
20260508054504 59 71 3.0 5.0 0.00 0.00 0.00 88 1013.6
20260508054004 60 63 2.0 6.0 0.00 0.00 0.00 88 1013.6
20260508053504 60 57 3.0 9.0 0.00 0.00 0.00 88 1014.0
20260508053003 60 44 4.0 12.0 0.00 0.00 0.00 88 1013.8
20260508052506 60 59 9.0 12.0 0.00 0.00 0.00 88 1013.6
20260508052004 60 55 7.0 10.0 0.00 0.00 0.00 88 1013.7
20260508051603 60 65 6.0 10.0 0.00 0.00 0.00 88 1013.9
20260508051059 60 71 4.0 10.0 0.00 0.00 0.00 88 1014.0
20260508050557 60 83 6.0 9.0 0.00 0.00 0.00 88 1013.9
20260508050100 60 34 1.0 3.0 0.00 0.00 0.00 88 1014.7
20260508045555 60 10 1.0 3.0 0.00 0.00 0.00 88 1014.8
20260508045058 60 10 0.0 6.0 0.00 0.00 0.00 88 1015.2
20260508044555 60 22 3.0 8.0 0.00 0.00 0.00 88 1015.0
20260508044058 60 13 5.0 7.0 0.00 0.00 0.00 88 1014.7
20260508043554 60 12 4.0 8.0 0.00 0.00 0.00 87 1014.8
20260508043055 60 24 3.0 9.0 0.00 0.00 0.00 87 1014.5
20260508042555 60 69 5.0 9.0 0.00 0.00 0.00 87 1014.3
20260508042058 60 61 6.0 7.0 0.00 0.00 0.00 87 1014.3
20260508041558 60 49 4.0 5.0 0.00 0.00 0.00 87 1014.4
20260508041054 60 10 3.0 7.0 0.00 0.00 0.00 87 1014.7
20260508040553 60 32 2.0 8.0 0.00 0.00 0.00 86 1014.6
20260508040055 60 53 4.0 9.0 0.00 0.00 0.00 86 1014.3
20260508035553 60 46 5.0 9.0 0.00 0.00 0.00 86 1014.4
20260508035052 60 32 6.0 9.0 0.00 0.00 0.00 86 1014.7
20260508034555 60 22 3.0 6.0 0.00 0.00 0.00 85 1014.8
20260508034051 60 348 2.0 8.0 0.00 0.00 0.00 85 1014.8
20260508033555 60 14 6.0 8.0 0.00 0.00 0.00 85 1014.6
20260508033058 60 20 3.0 8.0 0.00 0.00 0.00 85 1014.7
20260508032552 60 329 3.0 8.0 0.00 0.00 0.00 85 1014.5
20260508032054 60 320 3.0 10.0 0.00 0.00 0.00 85 1014.9
20260508031551 60 77 1.0 13.0 0.00 0.00 0.00 85 1014.4
20260508031050 60 89 6.0 16.0 0.00 0.00 0.00 86 1013.2
20260508030550 59 71 11.0 20.0 0.00 0.00 0.00 86 1012.5
20260508030107 59 81 13.0 20.0 0.00 0.00 0.00 86 1011.8
20260508025549 59 73 15.0 19.0 0.00 0.00 0.00 87 1012.3
20260508025052 59 62 12.0 15.0 0.00 0.00 0.00 87 1013.1
20260508024558 59 69 10.0 13.0 0.00 0.00 0.00 88 1013.7
20260508024050 59 52 7.0 12.0 0.00 0.00 0.00 88 1013.7
20260508023549 59 82 8.0 12.0 0.00 0.00 0.00 88 1014.0
20260508023050 59 51 8.0 11.0 0.00 0.00 0.00 88 1014.2
20260508022549 59 77 7.0 11.0 0.00 0.00 0.00 88 1014.1
20260508022049 59 51 8.0 11.0 0.00 0.00 0.00 88 1014.1
20260508021549 59 49 9.0 11.0 0.00 0.00 0.00 89 1013.9
20260508021049 59 61 7.0 11.0 0.00 0.00 0.00 88 1013.9
20260508020548 60 77 6.0 10.0 0.00 0.00 0.00 89 1013.9
20260508020049 60 65 6.0 9.0 0.00 0.00 0.00 89 1014.0
20260508015548 60 32 4.0 6.0 0.00 0.00 0.00 89 1014.3
20260508015048 60 41 2.0 5.0 0.00 0.00 0.00 89 1014.3
20260508014548 60 26 3.0 5.0 0.00 0.00 0.00 89 1014.2
20260508014048 60 26 2.0 4.0 0.00 0.00 0.00 88 1014.3
20260508013547 60 34 1.0 4.0 0.00 0.00 0.00 88 1014.2
20260508013048 60 40 2.0 3.0 0.00 0.00 0.00 88 1014.0
20260508012547 60 62 1.0 3.0 0.00 0.00 0.00 88 1013.9
20260508012051 60 32 1.0 3.0 0.00 0.00 0.00 88 1013.9
20260508011559 60 44 2.0 6.0 0.00 0.00 0.00 88 1013.8
20260508011047 60 47 3.0 9.0 0.00 0.00 0.00 88 1013.7
20260508010546 59 27 3.0 10.0 0.00 0.00 0.00 88 1013.5
20260508010057 59 49 5.0 11.0 0.00 0.00 0.00 88 1013.2
20260508005546 59 76 7.0 12.0 0.00 0.00 0.00 89 1012.9
20260508005046 59 62 7.0 14.0 0.00 0.00 0.00 89 1013.0
20260508004556 59 40 8.0 15.0 0.00 0.00 0.00 89 1013.0
20260508004045 59 55 9.0 15.0 0.00 0.00 0.00 89 1012.4
20260508003547 59 15 10.0 13.0 0.00 0.00 0.00 90 1013.1
20260508003046 59 9 8.0 10.0 0.00 0.00 0.00 90 1013.3
20260508002545 59 51 7.0 10.0 0.00 0.00 0.00 90 1012.6
20260508002045 59 30 5.0 9.0 0.00 0.00 0.00 90 1012.9
20260508001546 59 355 3.0 7.0 0.00 0.00 0.00 90 1013.4
20260508001044 59 355 2.0 13.0 0.00 0.00 0.00 90 1013.0
20260508000548 59 48 7.0 13.0 0.00 0.00 0.00 90 1012.7
20260508000043 59 355 7.0 11.0 0.00 0.00 0.00 90 1012.9
20260507235543 59 33 7.0 11.0 0.00 0.00 0.00 90 1013.0
20260507235043 59 36 7.0 11.0 0.00 0.00 0.00 89 1012.7
20260507234543 60 28 5.0 12.0 0.00 0.00 0.00 89 1012.9
20260507234042 60 30 6.0 16.0 0.00 0.00 0.00 89 1012.7
20260507233542 60 9 7.0 20.0 0.00 0.00 0.00 89 1012.6
20260507233041 60 48 10.0 21.0 0.00 0.00 0.00 89 1012.0
20260507232540 60 26 13.0 23.0 0.00 0.00 0.00 88 1012.0
20260507232040 60 52 15.0 27.0 0.00 0.00 0.00 88 1011.3
20260507231546 60 53 17.0 27.0 0.00 0.00 0.00 88 1012.3
20260507231041 61 360 13.0 24.0 0.00 0.00 0.00 86 1013.0
20260507230541 61 298 9.0 24.0 0.00 0.00 0.00 84 1012.2
20260507230040 61 116 15.0 24.0 0.00 0.00 0.00 84 1011.1
20260507225639 61 112 9.0 13.0 0.00 0.00 0.00 84 1012.8
20260507225039 61 69 5.0 18.0 0.00 0.00 0.00 84 1013.8
20260507224547 61 80 11.0 18.0 0.00 0.00 0.00 83 1013.8
20260507224038 61 9 11.0 18.0 0.00 0.00 0.00 82 1014.7
20260507223541 61 124 10.0 17.0 0.00 0.00 0.00 81 1013.4
20260507223038 61 110 10.0 17.0 0.00 0.00 0.00 82 1013.3
20260507222541 62 97 10.0 14.0 0.00 0.00 0.00 82 1013.4
20260507222037 62 71 9.0 13.0 0.00 0.00 0.00 82 1014.1
20260507221539 62 69 5.0 15.0 0.00 0.00 0.00 82 1014.2
20260507221040 62 76 10.0 15.0 0.00 0.00 0.00 81 1013.7
20260507220537 62 94 9.0 12.0 0.00 0.00 0.00 82 1013.7
20260507220039 62 76 5.0 14.0 0.00 0.00 0.00 82 1014.2
20260507215537 62 82 8.0 18.0 0.00 0.00 0.00 82 1013.9
20260507215037 62 76 11.0 18.0 0.00 0.00 0.00 82 1013.5
20260507214536 62 85 12.0 18.0 0.00 0.00 0.00 81 1013.9
20260507214036 62 58 9.0 15.0 0.00 0.00 0.00 82 1014.4
20260507213535 62 66 11.0 15.0 0.00 0.00 0.00 82 1014.2
20260507213035 62 79 10.0 14.0 0.00 0.00 0.00 83 1014.4
20260507212536 62 71 9.0 14.0 0.00 0.00 0.00 84 1014.4
20260507212036 62 67 11.0 14.0 0.00 0.00 0.00 84 1014.5
20260507211535 62 67 11.0 14.0 0.00 0.00 0.00 84 1014.8
20260507211034 62 42 8.0 13.0 0.00 0.00 0.00 84 1015.1
20260507210534 62 24 7.0 15.0 0.00 0.00 0.00 84 1014.9
20260507210039 62 42 11.0 16.0 0.00 0.00 0.00 84 1014.6
20260507205534 62 70 11.0 17.0 0.00 0.00 0.00 84 1014.7
20260507205035 62 55 13.0 17.0 0.00 0.00 0.00 84 1014.6
20260507204536 62 58 11.0 16.0 0.00 0.00 0.00 84 1014.5
20260507204032 62 59 10.0 16.0 0.00 0.00 0.00 85 1014.5
20260507203531 62 73 8.0 14.0 0.00 0.00 0.00 86 1014.7
20260507203030 61 65 9.0 14.0 0.00 0.00 0.00 86 1015.1
20260507202530 61 42 9.0 13.0 0.00 0.00 0.00 86 1015.2
20260507202030 61 71 5.0 14.0 0.00 0.00 0.00 86 1015.3
20260507201530 61 22 10.0 15.0 0.00 0.00 0.00 85 1015.3
20260507201030 62 10 7.0 13.0 0.00 0.00 0.00 86 1015.2
20260507200530 62 49 8.0 13.0 0.00 0.00 0.00 86 1014.9
20260507200035 62 41 9.0 13.0 0.00 0.00 0.00 86 1014.9
20260507195527 61 65 7.0 14.0 0.00 0.00 0.00 87 1014.9
20260507195027 61 31 9.0 14.0 0.00 0.00 0.00 86 1015.0
20260507194527 61 58 6.0 12.0 0.00 0.00 0.00 87 1015.0
20260507194027 61 32 6.0 15.0 0.00 0.00 0.00 87 1014.8
20260507193527 61 55 9.0 17.0 0.00 0.00 0.00 86 1014.7
20260507193028 61 62 13.0 18.0 0.00 0.00 0.00 86 1014.3
20260507192525 61 84 12.0 18.0 0.00 0.00 0.00 86 1014.5
20260507192125 61 45 10.0 18.0 0.00 0.00 0.00 86 1014.6
20260507191525 61 50 12.0 21.0 0.00 0.00 0.00 86 1014.6
20260507191027 60 49 16.0 21.0 0.00 0.00 0.00 87 1014.5
20260507190524 60 64 13.0 21.0 0.00 0.00 0.00 86 1014.6
20260507190035 60 59 17.0 21.0 0.00 0.00 0.00 86 1014.6
20260507185523 61 65 13.0 22.0 0.00 0.00 0.00 86 1014.7
20260507185029 61 74 14.0 25.0 0.00 0.00 0.00 86 1014.9
20260507184532 61 69 18.0 25.0 0.00 0.00 0.00 86 1014.9
20260507184021 60 66 18.0 25.0 0.00 0.00 0.00 86 1014.9
20260507183520 60 67 13.0 21.0 0.00 0.00 0.00 89 1015.1
20260507183023 59 60 13.0 21.0 0.00 0.00 0.00 88 1015.4
20260507182520 59 51 14.0 20.0 0.00 0.00 0.00 88 1015.5
20260507182021 59 46 13.0 20.0 0.00 0.00 0.00 88 1015.6
20260507181519 59 40 15.0 20.0 0.00 0.00 0.00 88 1015.6
20260507181019 59 40 14.0 21.0 0.00 0.00 0.00 88 1015.6
20260507180518 59 72 13.0 21.0 0.00 0.00 0.00 88 1015.7
20260507180018 59 30 12.0 19.0 0.00 0.00 0.00 89 1015.5
20260507175518 59 49 13.0 21.0 0.00 0.00 0.00 89 1015.5
20260507175017 59 71 13.0 23.0 0.00 0.00 0.00 90 1015.3
20260507174521 58 39 18.0 23.0 0.00 0.00 0.00 90 1014.9
20260507174016 58 46 17.0 21.0 0.00 0.00 0.00 90 1015.2
20260507173518 58 53 14.0 19.0 0.00 0.00 0.00 90 1015.4
20260507173018 58 47 13.0 19.0 0.00 0.00 0.00 91 1015.2
20260507172517 58 52 14.0 21.0 0.00 0.00 0.00 91 1015.2
20260507172015 58 61 17.0 21.0 0.00 0.00 0.00 91 1015.2
20260507171515 57 61 14.0 22.0 0.00 0.00 0.00 92 1015.3
20260507171015 57 51 14.0 24.0 0.00 0.00 0.00 92 1015.3
20260507170517 57 23 17.0 24.0 0.00 0.00 0.00 92 1015.2
20260507170015 57 49 13.0 19.0 0.00 0.00 0.00 92 1015.5
20260507165514 57 41 14.0 20.0 0.00 0.00 0.00 91 1015.8
20260507165014 57 49 13.0 21.0 0.00 0.00 0.00 92 1015.5
20260507164518 57 46 16.0 21.0 0.00 0.00 0.00 92 1015.4
20260507164016 56 66 15.0 20.0 0.00 0.00 0.00 92 1015.7
20260507163513 57 60 14.0 21.0 0.00 0.00 0.00 92 1015.7
20260507163012 56 41 15.0 21.0 0.00 0.00 0.00 92 1015.8
20260507162513 57 56 16.0 21.0 0.00 0.00 0.00 92 1016.1
20260507162012 56 57 12.0 24.0 0.00 0.00 0.00 93 1016.1
20260507161512 57 42 18.0 24.0 0.00 0.00 0.00 92 1015.7
20260507161011 57 55 15.0 22.0 0.00 0.00 0.00 91 1015.7
20260507160511 57 40 15.0 24.0 0.00 0.00 0.00 91 1015.7
20260507160011 57 48 14.0 24.0 0.00 0.00 0.00 91 1015.9
20260507155510 57 42 16.0 24.0 0.00 0.03 0.00 90 1015.8
20260507155009 58 47 16.0 25.0 0.00 0.03 0.00 90 1015.5
20260507154508 58 61 17.0 25.0 0.00 0.03 0.00 92 1015.4
20260507154010 57 72 16.0 25.0 0.00 0.03 0.00 92 1015.6
20260507153507 57 54 16.0 27.0 0.00 0.03 0.00 93 1015.5
20260507153007 56 56 15.0 28.0 0.00 0.03 0.00 93 1015.6
20260507152507 56 47 20.0 28.0 0.00 0.03 0.00 94 1015.2
20260507152007 56 63 18.0 29.0 0.00 0.03 0.00 94 1015.3
20260507151507 56 40 18.0 26.0 0.00 0.03 0.00 95 1015.0
20260507151006 55 51 19.0 29.0 0.00 0.03 0.00 95 1015.0
20260507150506 55 57 18.0 28.0 0.00 0.03 0.00 95 1014.9
20260507150010 55 44 19.0 26.0 0.00 0.03 0.00 95 1015.1
20260507145506 55 33 13.0 27.0 0.00 0.04 0.00 96 1015.2
20260507145005 55 71 18.0 29.0 0.00 0.04 0.00 95 1015.1
20260507144505 55 43 23.0 29.0 0.00 0.04 0.00 96 1015.1
20260507144005 55 53 18.0 25.0 0.00 0.04 0.00 96 1015.4
20260507143508 55 48 18.0 25.0 0.00 0.04 0.00 96 1015.4
20260507143005 55 58 17.0 25.0 0.00 0.04 0.00 96 1015.2
20260507142504 55 37 18.0 25.0 0.00 0.04 0.00 97 1015.0
20260507142006 55 61 15.0 24.0 0.00 0.04 0.00 98 1015.1
20260507141504 55 38 18.0 24.0 0.00 0.04 0.00 97 1015.1
20260507141007 55 38 17.0 23.0 0.00 0.04 0.00 97 1015.3
20260507140504 55 19 15.0 24.0 0.00 0.04 0.00 97 1015.5
20260507140003 55 53 17.0 24.0 0.00 0.04 0.00 97 1015.7
20260507135502 55 78 15.0 21.0 0.00 0.05 0.00 97 1015.7
20260507135002 55 63 13.0 21.0 0.00 0.05 0.00 97 1015.5
20260507134501 55 56 16.0 21.0 0.00 0.05 0.00 97 1015.3
20260507134001 55 82 15.0 25.0 0.00 0.05 0.00 97 1015.2
20260507133600 55 62 17.0 26.0 0.00 0.05 0.00 96 1014.9
20260507133100 55 35 15.0 26.0 0.00 0.05 0.00 96 1014.7
20260507132559 55 54 20.0 26.0 0.00 0.05 0.00 96 1014.1
20260507132059 55 49 17.0 27.0 0.00 0.05 0.00 96 1014.0
20260507131604 55 30 21.0 27.0 0.00 0.05 0.00 96 1014.0
20260507131054 56 42 16.0 25.0 0.00 0.05 0.00 96 1014.8
20260507130551 56 40 14.0 21.0 0.00 0.05 0.00 95 1015.3
20260507125554 56 45 19.0 27.0 0.00 0.05 0.00 95 1014.8
20260507125049 56 44 16.0 23.0 0.00 0.05 0.00 95 1014.9
20260507124603 56 37 17.0 23.0 0.00 0.05 0.00 95 1014.9
20260507124047 57 73 18.0 23.0 0.00 0.05 0.00 94 1014.7
20260507123545 57 37 15.0 21.0 0.00 0.05 0.00 94 1014.7
20260507123055 57 57 14.0 23.0 0.00 0.05 0.00 94 1014.7
20260507122543 57 68 15.0 23.0 0.00 0.05 0.00 94 1014.6
20260507122042 57 62 13.0 21.0 0.00 0.05 0.00 94 1014.5
20260507121547 57 50 14.0 21.0 0.00 0.05 0.00 94 1014.4
20260507121041 57 46 13.0 23.0 0.00 0.05 0.00 94 1014.3
20260507120539 57 32 16.0 23.0 0.00 0.05 0.00 94 1014.0
20260507120040 57 46 15.0 21.0 0.00 0.05 0.00 94 1014.1
20260507115538 57 60 16.0 21.0 0.00 0.05 0.00 94 1013.8
20260507115037 57 64 14.0 19.0 0.00 0.05 0.00 94 1013.8
20260507114540 58 57 11.0 19.0 0.00 0.05 0.00 94 1013.7
20260507114038 57 54 14.0 21.0 0.00 0.05 0.00 94 1013.7
20260507113533 58 40 16.0 21.0 0.00 0.05 0.00 94 1013.5
20260507113035 58 42 12.0 18.0 0.00 0.05 0.00 94 1013.7
20260507112532 58 44 12.0 19.0 0.00 0.05 0.00 94 1013.7
20260507112031 58 53 15.0 19.0 0.00 0.05 0.00 94 1013.6
20260507111532 58 31 13.0 18.0 0.00 0.05 0.00 94 1013.7
20260507111030 58 34 13.0 17.0 0.00 0.05 0.00 94 1013.7
20260507110530 58 54 12.0 18.0 0.00 0.05 0.00 94 1013.5
20260507110030 58 57 14.0 23.0 0.00 0.05 0.00 94 1013.5
20260507105528 58 42 17.0 23.0 0.00 0.05 0.00 94 1013.4